Regional Weather Roundup
Issued by NWS Cleveland, OH

Home | Current Version | Previous Version | Graphics & Text | Print | Product List | Glossary On
Versions: 1 2 3 4 5 6 7 8 9 10 11 12 13 14 15 16 17 18 19 20 21 22 23 24 25 26 27 28 29 30 31 32 33 34 35 36 37 38 39 40 41 42 43 44 45 46 47 48 49 50
000
ASUS41 KCLE 120610
RWRCLE
OHIO REGIONAL WEATHER ROUNDUP
NATIONAL WEATHER SERVICE CLEVELAND, OH
100 AM EST TUE DEC 12 2017

NOTE: "FAIR" INDICATES FEW OR NO CLOUDS BELOW 12,000 FEET WITH NO
SIGNIFICANT WEATHER AND/OR OBSTRUCTIONS TO VISIBILITY.

OHZ001>008-015>018-024>027-034-035-043-044-120700-
   NORTHWEST OHIO

CITY           SKY/WX    TMP DP  RH WIND       PRES   REMARKS
DEFIANCE       CLOUDY    31  28  89 W7        29.69R FOG     WCI  24
FINDLAY        MOCLDY    31  25  78 NW7       29.65R WCI  24
TOLEDO EXPRESS LGT SNOW  30  30 100 NW6       29.66R FOG     WCI  24
TOLEDO EXEC    LGT SNOW  31  29  92 NW6       29.66S FOG     WCI  25
LIMA           CLOUDY    30  27  88 NW9       29.67R WCI  22
$$

OHZ009>014-019>023-028>033-038-089-120700-
   NORTHEAST OHIO

CITY           SKY/WX    TMP DP  RH WIND       PRES   REMARKS
CLE-HOPKINS    LGT SNOW  34  29  82 NE8       29.61F WCI  27
CLE-LAKEFRONT  LGT SNOW  34  27  75 CALM      29.61F
CUY CO. ARPT   NOT AVBL
LORAIN-ELYRIA  CLOUDY    32  21  64 NE3       29.61F
ASHTABULA      CLOUDY    30  26  85 CALM      29.61F
AKRON-CANTON   CLOUDY    35  23  61 S7        29.57F WCI  29
WOOSTER        CLOUDY    31  25  78 CALM      29.57F
MANSFIELD      CLOUDY    34  25  69 SW7       29.57F WCI  28
YOUNGSTOWN     FLURRIES  32  23  69 SE9       29.57F WCI  24
$$

OHZ042-051>053-060>062-070>072-077>081-120700-
  SOUTHWEST OHIO

CITY           SKY/WX    TMP DP  RH WIND       PRES   REMARKS
CINC-COVINGTON MOCLDY    40  29  64 W24G30    29.75R
CINC-LUNKEN    CLOUDY    43  29  57 W23G31    29.76R
HAMILTON       PTCLDY    41  28  60 W13G23    29.75R
DAYTON         CLOUDY    37  29  72 W18       29.69R
WRIGHT-PAT AFB MOCLDY    38  27  64 W13       29.67R
DAYTON GENERAL MOCLDY    39  27  62 W16       29.70R
WILMINGTON     CLOUDY    40  29  64 W17G26    29.68R
$$

OHZ036-037-039>041-045>050-054>059-063>069-073>076-082>088-120700-
  CENTRAL AND SOUTHEAST OHIO

CITY           SKY/WX    TMP DP  RH WIND       PRES   REMARKS
COLUMBUS       CLOUDY    40  28  62 SW15      29.63R
OSU AIRPORT    CLOUDY    38  29  70 W15       29.63R
BOLTON FIELD   CLOUDY    38  28  67 W14G21    29.65R
RICKENBACK AFB CLOUDY    38  29  69 W16       29.65R
NEWARK         CLOUDY    40  28  62 W17G25    29.61R
MARION         NOT AVBL
LANCASTER      CLOUDY    40  28  62 W15G23    29.65R
ZANESVILLE     CLOUDY    39  26  59 SW9       29.61F
NEW PHILLY     NOT AVBL
$$



USA.gov is the U.S. government's official web portal to all federal, state and local government web resources and services.